Wenatchee, WA

1:08 AM PDT on May 27, 2017 (GMT -0700)
Pangborn Memorial

Weather History for KEAT - January, 2012

Change the Weather History Date:

Saturday, January 21, 2012

  Actual Average Record
Temperature  
Mean Temperature 29 °F 30 °F  
Max Temperature 40 °F 36 °F 48 °F (2011)
Min Temperature 18 °F 25 °F -1 °F (1962)
Degree Days  
Heating Degree Days 36 35  
Month to date heating degree days 809 764  
Since 1 July heating degree days 3226 3284  
Cooling Degree Days 0 0  
Month to date cooling degree days 0 0  
Year to date cooling degree days 0 0  
Moisture  
Dew Point 19 °F    
Average Humidity 68    
Maximum Humidity 92    
Minimum Humidity 44    
Precipitation  
Precipitation T in 0.03 in 0.39 in (2003)
Month to date precipitation 0.59 0.75  
Year to date precipitation 0.59 0.75  
Sea Level Pressure  
Sea Level Pressure 29.47 in    
Wind  
Wind Speed 5 mph (North)    
Max Wind Speed 17 mph    
Max Gust Speed 23 mph    
Visibility 9 miles    
Events Snow    
T = Trace of Precipitation, MM = Missing Value Source: NWS Daily Summary

Daily Weather History Graph

Daily Weather History Graph

Search for Another Location

Airport or City:

Trip Planner

Search our weather history database for the weather conditions in past years. The results will help you decide how hot, cold, wet, or windy it might be!

Date:

Astronomy

Jan. 21, 2012 Rise Set
Actual Time 7:39 AM PST 4:45 PM PST
Civil Twilight 7:05 AM PST 5:19 PM PST
Nautical Twilight 6:27 AM PST 5:57 PM PST
Astronomical Twilight 5:51 AM PST 6:33 PM PST
Moon 6:17 AM PST (1/21) 3:24 PM PST (1/21)
Length of Visible Light 10h 14m
Length of Day
9h 06m
Waning Crescent, 3% of the Moon is Illuminated
Jan 21
Waning Crescent
Jan 22
New
Jan 30
First Quarter
Feb 7
Full
Feb 14
Last Quarter

Hourly Weather History & Observations

Time (PST) Temp. Windchill Dew Point Humidity Pressure Visibility Wind Dir Wind Speed Gust Speed Precip Events Conditions
1:42 AM 19.4 °F 12.8 °F 15.8 °F 86% 29.27 in 1.8 mi West 4.6 mph - 0.00 in Snow Light Snow
1:50 AM 19.4 °F - 17.6 °F 93% 29.26 in 2.5 mi Calm Calm - 0.00 in Snow Light Snow
1:55 AM 19.0 °F 12.3 °F 17.1 °F 92% 29.31 in 3.0 mi WNW 4.6 mph - 0.00 in Snow Light Snow
2:55 AM 19.0 °F 13.9 °F 17.1 °F 92% 29.30 in 10.0 mi WNW 3.5 mph - 0.00 in   Overcast
3:55 AM 19.9 °F - 17.1 °F 89% 29.28 in 10.0 mi Calm Calm - N/A   Overcast
4:55 AM 19.9 °F 12.1 °F 17.1 °F 89% 29.28 in 10.0 mi West 5.8 mph - N/A   Overcast
5:55 AM 19.9 °F - 17.1 °F 89% 29.29 in 5.0 mi Calm Calm - 0.00 in   Overcast
6:17 AM 19.4 °F 11.5 °F 15.8 °F 86% 29.24 in 10.0 mi WNW 5.8 mph - N/A   Scattered Clouds
6:55 AM 19.0 °F - 17.1 °F 92% 29.30 in 10.0 mi Calm Calm - N/A   Partly Cloudy
7:55 AM 18.0 °F 9.8 °F 15.1 °F 88% 29.32 in 10.0 mi ENE 5.8 mph - N/A   Clear
9:55 AM 24.1 °F 17.0 °F 19.0 °F 81% 29.38 in 10.0 mi East 5.8 mph - N/A   Clear
10:55 AM 25.0 °F 18.1 °F 19.9 °F 81% 29.42 in 10.0 mi ENE 5.8 mph - N/A   Partly Cloudy
11:55 AM 25.0 °F 19.3 °F 19.9 °F 81% 29.43 in 10.0 mi ESE 4.6 mph - N/A   Clear
12:55 PM 26.1 °F 21.9 °F 21.0 °F 81% 29.45 in 10.0 mi SSE 3.5 mph - N/A   Clear
1:55 PM 26.1 °F - 21.0 °F 81% 29.48 in 10.0 mi Calm Calm - N/A   Mostly Cloudy
2:55 PM 27.0 °F 23.0 °F 21.0 °F 78% 29.53 in 10.0 mi NE 3.5 mph - N/A   Clear
3:55 PM 28.9 °F 20.4 °F 21.9 °F 75% 29.57 in 10.0 mi East 9.2 mph - N/A   Clear
5:55 PM 28.0 °F - 21.0 °F 75% 29.65 in 10.0 mi Calm Calm - N/A   Partly Cloudy
7:55 PM 39.0 °F 30.3 °F 19.9 °F 46% 29.74 in 10.0 mi WNW 16.1 mph 23.0 mph N/A   Clear
8:55 PM 36.0 °F 28.0 °F 19.9 °F 52% 29.78 in 10.0 mi West 11.5 mph - N/A   Clear
9:55 PM 32.0 °F 25.6 °F 21.0 °F 64% 29.81 in 10.0 mi North 6.9 mph - N/A   Clear
10:55 PM 30.9 °F 27.5 °F 21.0 °F 67% 29.83 in 10.0 mi North 3.5 mph - N/A   Clear
11:55 PM 28.9 °F 25.2 °F 21.0 °F 72% 29.86 in 10.0 mi ENE 3.5 mph - N/A   Clear